Time,TemperatureF,DewpointF,PressureIn,WindDirection,WindDirectionDegrees,WindSpeedMPH,WindSpeedGustMPH,Humidity,HourlyPrecipIn,Conditions,Clouds,dailyrainin,SoftwareType,DateUTC
2013-02-19 00:02:00,20.0,11.0,30.17,West,274,0.0,1.0,68,0.00,,,0.00,,2013-02-19 05:02:00,
2013-02-19 00:13:00,20.0,11.0,30.17,West,274,0.0,1.0,68,0.00,,,0.00,,2013-02-19 05:13:00,
2013-02-19 00:22:00,20.0,11.0,30.16,NW,308,0.0,1.0,67,0.00,,,0.00,,2013-02-19 05:22:00,
2013-02-19 00:32:00,20.0,10.0,30.17,WNW,292,0.0,1.0,65,0.00,,,0.00,,2013-02-19 05:32:00,
2013-02-19 00:43:00,20.0,10.0,30.17,WNW,292,0.0,1.0,65,0.00,,,0.00,,2013-02-19 05:43:00,
2013-02-19 00:52:00,20.0,10.0,30.17,WNW,294,0.0,0.0,65,0.00,,,0.00,,2013-02-19 05:52:00,
2013-02-19 01:03:00,19.0,10.0,30.17,NW,305,0.0,1.0,67,0.00,,,0.00,,2013-02-19 06:03:00,
2013-02-19 01:12:00,19.0,10.0,30.17,NW,305,0.0,1.0,67,0.00,,,0.00,,2013-02-19 06:12:00,
2013-02-19 01:22:00,19.0,11.0,30.17,WNW,299,0.0,1.0,71,0.00,,,0.00,,2013-02-19 06:22:00,
2013-02-19 01:32:00,19.0,11.0,30.16,WNW,299,0.0,1.0,72,0.00,,,0.00,,2013-02-19 06:32:00,
2013-02-19 01:42:00,19.0,11.0,30.16,WNW,299,0.0,1.0,72,0.00,,,0.00,,2013-02-19 06:42:00,
2013-02-19 01:52:00,20.0,12.0,30.16,West,276,0.0,1.0,70,0.00,,,0.00,,2013-02-19 06:52:00,
2013-02-19 02:02:00,20.0,11.0,30.15,WNW,301,0.0,1.0,69,0.00,,,0.00,,2013-02-19 07:02:00,
2013-02-19 02:12:00,20.0,11.0,30.15,WNW,301,0.0,1.0,69,0.00,,,0.00,,2013-02-19 07:12:00,
2013-02-19 02:22:00,21.0,12.0,30.15,WNW,301,0.0,1.0,69,0.00,,,0.00,,2013-02-19 07:22:00,
2013-02-19 02:32:00,21.0,11.0,30.15,WNW,301,0.0,0.0,65,0.00,,,0.00,,2013-02-19 07:32:00,
2013-02-19 02:42:00,21.0,11.0,30.15,WNW,301,0.0,0.0,65,0.00,,,0.00,,2013-02-19 07:42:00,
2013-02-19 02:52:00,22.0,12.0,30.14,WNW,301,0.0,1.0,64,0.00,,,0.00,,2013-02-19 07:52:00,
2013-02-19 03:02:00,22.0,12.0,30.13,NW,313,0.0,1.0,64,0.00,,,0.00,,2013-02-19 08:02:00,
2013-02-19 03:11:00,22.0,12.0,30.13,NW,313,0.0,1.0,64,0.00,,,0.00,,2013-02-19 08:11:00,
2013-02-19 03:22:00,22.0,12.0,30.13,North,360,0.0,3.0,65,0.00,,,0.00,,2013-02-19 08:22:00,
2013-02-19 03:32:00,22.0,13.0,30.12,NW,322,0.0,3.0,67,0.00,,,0.00,,2013-02-19 08:32:00,
2013-02-19 03:42:00,22.0,13.0,30.12,NW,322,0.0,3.0,67,0.00,,,0.00,,2013-02-19 08:42:00,
2013-02-19 03:52:00,22.0,13.0,30.11,NW,314,0.0,3.0,67,0.00,,,0.00,,2013-02-19 08:52:00,
2013-02-19 04:02:00,22.0,13.0,30.11,NNW,334,0.0,4.0,67,0.00,,,0.00,,2013-02-19 09:02:00,
2013-02-19 04:11:00,22.0,13.0,30.11,NNW,334,0.0,4.0,67,0.00,,,0.00,,2013-02-19 09:11:00,
2013-02-19 04:22:00,22.0,14.0,30.11,NW,318,0.0,3.0,70,0.00,,,0.00,,2013-02-19 09:22:00,
2013-02-19 04:32:00,22.0,14.0,30.10,NNW,329,0.0,4.0,70,0.00,,,0.00,,2013-02-19 09:32:00,
2013-02-19 04:42:00,22.0,14.0,30.10,NNW,329,0.0,4.0,70,0.00,,,0.00,,2013-02-19 09:42:00,
2013-02-19 04:52:00,21.0,13.0,30.09,NW,309,0.0,1.0,70,0.00,,,0.00,,2013-02-19 09:52:00,
2013-02-19 05:02:00,22.0,14.0,30.09,NW,308,0.0,1.0,70,0.00,,,0.00,,2013-02-19 10:02:00,
2013-02-19 05:11:00,22.0,14.0,30.09,NW,308,0.0,1.0,70,0.00,,,0.00,,2013-02-19 10:11:00,
2013-02-19 05:22:00,22.0,13.0,30.08,NW,313,0.0,2.0,68,0.00,,,0.00,,2013-02-19 10:22:00,
2013-02-19 05:32:00,21.0,13.0,30.08,NW,318,0.0,2.0,70,0.00,,,0.00,,2013-02-19 10:32:00,
2013-02-19 05:42:00,21.0,13.0,30.08,NW,318,0.0,2.0,70,0.00,,,0.00,,2013-02-19 10:42:00,
2013-02-19 05:52:00,21.0,13.0,30.07,NW,320,0.0,3.0,70,0.00,,,0.00,,2013-02-19 10:52:00,
2013-02-19 06:01:00,21.0,12.0,30.07,NW,306,1.0,3.0,69,0.00,,,0.00,,2013-02-19 11:01:00,
2013-02-19 06:11:00,21.0,12.0,30.07,NW,306,1.0,3.0,69,0.00,,,0.00,,2013-02-19 11:11:00,
2013-02-19 06:22:00,21.0,13.0,30.05,NW,324,0.0,2.0,70,0.00,,,0.00,,2013-02-19 11:22:00,
2013-02-19 06:32:00,20.0,12.0,30.04,NW,320,0.0,2.0,71,0.00,,,0.00,,2013-02-19 11:32:00,
2013-02-19 06:42:00,20.0,12.0,30.04,NW,320,0.0,2.0,71,0.00,,,0.00,,2013-02-19 11:42:00,
2013-02-19 06:52:00,20.0,12.0,30.03,NW,311,0.0,3.0,72,0.00,,,0.00,,2013-02-19 11:52:00,
2013-02-19 07:02:00,20.0,13.0,30.03,WNW,302,0.0,2.0,73,0.00,,,0.00,,2013-02-19 12:02:00,
2013-02-19 07:12:00,20.0,13.0,30.03,WNW,302,0.0,2.0,73,0.00,,,0.00,,2013-02-19 12:12:00,
2013-02-19 07:22:00,20.0,13.0,30.02,NW,320,0.0,1.0,74,0.00,,,0.00,,2013-02-19 12:22:00,
2013-02-19 07:32:00,20.0,13.0,30.02,NW,313,0.0,2.0,74,0.00,,,0.00,,2013-02-19 12:32:00,
2013-02-19 07:42:00,20.0,13.0,30.02,NW,313,0.0,2.0,74,0.00,,,0.00,,2013-02-19 12:42:00,
2013-02-19 07:52:00,20.0,13.0,30.02,NW,324,1.0,3.0,73,0.00,,,0.00,,2013-02-19 12:52:00,
2013-02-19 08:02:00,20.0,13.0,30.01,NW,310,0.0,2.0,74,0.00,,,0.00,,2013-02-19 13:02:00,
2013-02-19 08:11:00,20.0,13.0,30.01,NW,310,0.0,2.0,74,0.00,,,0.00,,2013-02-19 13:11:00,
2013-02-19 08:22:00,21.0,14.0,30.01,NW,318,0.0,1.0,74,0.00,,,0.00,,2013-02-19 13:22:00,
2013-02-19 08:32:00,21.0,13.0,30.00,NW,312,0.0,2.0,72,0.00,,,0.00,,2013-02-19 13:32:00,
2013-02-19 08:42:00,21.0,13.0,30.00,NW,312,0.0,2.0,72,0.00,,,0.00,,2013-02-19 13:42:00,
2013-02-19 08:52:00,22.0,14.0,30.00,NW,306,0.0,2.0,72,0.00,,,0.00,,2013-02-19 13:52:00,
2013-02-19 09:02:00,22.0,14.0,30.00,WNW,301,0.0,2.0,70,0.00,,,0.00,,2013-02-19 14:02:00,
2013-02-19 09:12:00,22.0,14.0,30.00,WNW,301,0.0,2.0,70,0.00,,,0.00,,2013-02-19 14:12:00,
2013-02-19 09:22:00,23.0,14.0,29.98,WNW,301,0.0,1.0,68,0.00,,,0.00,,2013-02-19 14:22:00,
2013-02-19 09:33:00,25.0,15.0,29.96,WNW,295,0.0,1.0,65,0.00,,,0.00,,2013-02-19 14:33:00,
2013-02-19 09:42:00,25.0,15.0,29.96,WNW,295,0.0,1.0,65,0.00,,,0.00,,2013-02-19 14:42:00,
2013-02-19 09:52:00,26.0,15.0,29.95,NW,310,0.0,2.0,63,0.00,,,0.00,,2013-02-19 14:52:00,
2013-02-19 10:02:00,27.0,15.0,29.94,NW,305,0.0,2.0,61,0.00,,,0.00,,2013-02-19 15:02:00,
2013-02-19 10:11:00,27.0,15.0,29.94,NW,305,0.0,2.0,61,0.00,,,0.00,,2013-02-19 15:11:00,
2013-02-19 10:22:00,28.0,16.0,29.95,NW,309,0.0,1.0,61,0.00,,,0.00,,2013-02-19 15:22:00,
2013-02-19 10:32:00,30.0,17.0,29.94,West,277,1.0,3.0,57,0.00,,,0.00,,2013-02-19 15:32:00,
2013-02-19 10:42:00,30.0,17.0,29.94,West,277,1.0,3.0,57,0.00,,,0.00,,2013-02-19 15:42:00,
2013-02-19 10:52:00,31.0,18.0,29.91,NW,313,0.0,2.0,57,0.00,,,0.00,,2013-02-19 15:52:00,
2013-02-19 11:02:00,32.0,18.0,29.91,NW,310,0.0,3.0,56,0.00,,,0.00,,2013-02-19 16:02:00,
2013-02-19 11:11:00,32.0,18.0,29.91,NW,310,0.0,3.0,56,0.00,,,0.00,,2013-02-19 16:11:00,
2013-02-19 11:22:00,35.0,21.0,29.89,West,267,1.0,4.0,56,0.00,,,0.00,,2013-02-19 16:22:00,
2013-02-19 11:32:00,40.0,22.0,29.89,SW,223,4.0,15.0,49,0.00,,,0.00,,2013-02-19 16:32:00,
2013-02-19 11:42:00,40.0,22.0,29.89,SW,223,4.0,15.0,49,0.00,,,0.00,,2013-02-19 16:42:00,
2013-02-19 11:52:00,41.0,23.0,29.87,South,186,8.0,16.0,48,0.00,,,0.00,,2013-02-19 16:52:00,
2013-02-19 12:01:00,41.0,23.0,29.86,SW,222,7.0,15.0,48,0.00,,,0.00,,2013-02-19 17:01:00,
2013-02-19 12:11:00,41.0,23.0,29.86,SW,222,7.0,15.0,48,0.00,,,0.00,,2013-02-19 17:11:00,
2013-02-19 12:21:00,41.0,23.0,29.84,SSE,164,5.0,12.0,48,0.00,,,0.00,,2013-02-19 17:21:00,
2013-02-19 12:32:00,41.0,23.0,29.83,West,268,2.0,12.0,48,0.00,,,0.00,,2013-02-19 17:32:00,
2013-02-19 12:42:00,41.0,23.0,29.83,West,268,2.0,12.0,48,0.00,,,0.00,,2013-02-19 17:42:00,
2013-02-19 12:52:00,42.0,24.0,29.81,WSW,247,4.0,15.0,48,0.00,,,0.00,,2013-02-19 17:52:00,
2013-02-19 13:02:00,42.0,23.0,29.80,SW,215,7.0,13.0,47,0.00,,,0.00,,2013-02-19 18:02:00,
2013-02-19 13:11:00,42.0,23.0,29.80,SW,215,7.0,13.0,47,0.00,,,0.00,,2013-02-19 18:11:00,
2013-02-19 13:21:00,43.0,24.0,29.80,South,185,4.0,20.0,47,0.00,,,0.00,,2013-02-19 18:21:00,
2013-02-19 13:32:00,43.0,24.0,29.78,SSE,156,8.0,14.0,46,0.00,,,0.00,,2013-02-19 18:32:00,
2013-02-19 13:42:00,43.0,24.0,29.78,SSE,156,8.0,14.0,46,0.00,,,0.00,,2013-02-19 18:42:00,
2013-02-19 13:52:00,44.0,25.0,29.78,SSW,213,10.0,26.0,46,0.00,,,0.00,,2013-02-19 18:52:00,
2013-02-19 14:01:00,44.0,25.0,29.77,South,177,9.0,21.0,46,0.00,,,0.00,,2013-02-19 19:01:00,
2013-02-19 14:11:00,44.0,25.0,29.77,South,177,9.0,21.0,46,0.00,,,0.00,,2013-02-19 19:11:00,
2013-02-19 14:21:00,43.0,25.0,29.77,South,188,14.0,30.0,48,0.00,,,0.00,,2013-02-19 19:21:00,
2013-02-19 14:32:00,43.0,25.0,29.77,South,188,14.0,30.0,48,0.00,,,0.00,,2013-02-19 19:32:00,
2013-02-19 14:42:00,43.0,25.0,29.77,South,188,14.0,30.0,48,0.00,,,0.00,,2013-02-19 19:42:00,
2013-02-19 14:52:00,42.0,27.0,29.77,SSW,193,10.0,18.0,56,0.00,,,0.00,,2013-02-19 19:52:00,
2013-02-19 15:02:00,41.0,28.0,29.77,SW,229,8.0,20.0,60,0.00,,,0.00,,2013-02-19 20:02:00,
2013-02-19 15:12:00,41.0,28.0,29.77,SW,229,8.0,20.0,60,0.00,,,0.00,,2013-02-19 20:12:00,
2013-02-19 15:22:00,40.0,30.0,29.76,SW,216,7.0,17.0,66,0.00,,,0.00,,2013-02-19 20:22:00,
2013-02-19 15:32:00,39.0,30.0,29.75,South,175,5.0,13.0,69,0.00,,,0.00,,2013-02-19 20:32:00,
2013-02-19 15:42:00,39.0,30.0,29.75,South,175,5.0,13.0,69,0.00,,,0.00,,2013-02-19 20:42:00,
2013-02-19 15:52:00,39.0,30.0,29.74,SW,215,6.0,13.0,69,0.00,,,0.00,,2013-02-19 20:52:00,
2013-02-19 16:02:00,39.0,31.0,29.74,South,175,5.0,11.0,72,0.00,,,0.00,,2013-02-19 21:02:00,
2013-02-19 16:11:00,39.0,31.0,29.74,South,175,5.0,11.0,72,0.00,,,0.00,,2013-02-19 21:11:00,
2013-02-19 16:21:00,39.0,32.0,29.73,West,279,3.0,7.0,75,0.00,,,0.00,,2013-02-19 21:21:00,
2013-02-19 16:32:00,39.0,32.0,29.72,SSW,213,3.0,8.0,77,0.00,,,0.00,,2013-02-19 21:32:00,
2013-02-19 16:42:00,39.0,32.0,29.72,SSW,213,3.0,8.0,77,0.00,,,0.00,,2013-02-19 21:42:00,
2013-02-19 16:51:00,39.0,33.0,29.70,SW,219,6.0,12.0,80,0.00,,,0.00,,2013-02-19 21:51:00,
2013-02-19 17:02:00,40.0,35.0,29.71,South,173,4.0,14.0,81,0.00,,,0.00,,2013-02-19 22:02:00,
2013-02-19 17:11:00,40.0,35.0,29.71,South,173,4.0,14.0,81,0.00,,,0.00,,2013-02-19 22:11:00,
2013-02-19 17:22:00,39.0,34.0,29.70,SW,234,5.0,13.0,83,0.00,,,0.00,,2013-02-19 22:22:00,
2013-02-19 17:32:00,39.0,34.0,29.70,SW,234,5.0,13.0,83,0.00,,,0.00,,2013-02-19 22:32:00,
2013-02-19 17:42:00,39.0,34.0,29.70,SW,234,5.0,13.0,83,0.00,,,0.00,,2013-02-19 22:42:00,
2013-02-19 17:52:00,39.0,35.0,29.69,SW,225,7.0,12.0,85,0.00,,,0.00,,2013-02-19 22:52:00,
2013-02-19 18:01:00,39.0,35.0,29.69,SW,220,7.0,15.0,86,0.00,,,0.00,,2013-02-19 23:01:00,
2013-02-19 18:11:00,39.0,35.0,29.69,SW,220,7.0,15.0,86,0.00,,,0.00,,2013-02-19 23:11:00,
2013-02-19 18:21:00,38.0,34.0,29.68,SW,236,7.0,16.0,87,0.02,,,0.02,,2013-02-19 23:21:00,
2013-02-19 18:32:00,38.0,35.0,29.68,SW,234,3.0,10.0,89,0.02,,,0.02,,2013-02-19 23:32:00,
2013-02-19 18:42:00,38.0,35.0,29.68,SW,234,3.0,10.0,89,0.02,,,0.02,,2013-02-19 23:42:00,
2013-02-19 18:52:00,38.0,35.0,29.68,SE,126,3.0,9.0,90,0.04,,,0.04,,2013-02-19 23:52:00,
2013-02-19 19:02:00,38.0,35.0,29.68,SW,233,3.0,9.0,90,0.05,,,0.05,,2013-02-20 00:02:00,
2013-02-19 19:11:00,38.0,35.0,29.68,SW,233,3.0,9.0,90,0.05,,,0.05,,2013-02-20 00:11:00,
2013-02-19 19:22:00,37.0,35.0,29.67,SW,228,2.0,11.0,91,0.04,,,0.06,,2013-02-20 00:22:00,
2013-02-19 19:32:00,37.0,35.0,29.66,South,175,2.0,6.0,91,0.04,,,0.07,,2013-02-20 00:32:00,
2013-02-19 19:42:00,37.0,35.0,29.66,South,175,2.0,6.0,91,0.04,,,0.07,,2013-02-20 00:42:00,
2013-02-19 19:52:00,37.0,35.0,29.66,West,275,2.0,6.0,91,0.03,,,0.07,,2013-02-20 00:52:00,
2013-02-19 20:02:00,37.0,35.0,29.66,SSE,148,2.0,9.0,91,0.02,,,0.07,,2013-02-20 01:02:00,
2013-02-19 20:11:00,37.0,35.0,29.66,SSE,148,2.0,9.0,91,0.02,,,0.07,,2013-02-20 01:11:00,
2013-02-19 20:22:00,37.0,35.0,29.65,SW,225,3.0,7.0,92,0.02,,,0.08,,2013-02-20 01:22:00,
2013-02-19 20:32:00,37.0,35.0,29.66,West,269,0.0,6.0,92,0.03,,,0.10,,2013-02-20 01:32:00,
2013-02-19 20:42:00,37.0,35.0,29.66,West,269,0.0,6.0,92,0.03,,,0.10,,2013-02-20 01:42:00,
2013-02-19 20:52:00,37.0,35.0,29.65,WSW,242,2.0,8.0,93,0.04,,,0.11,,2013-02-20 01:52:00,
2013-02-19 21:02:00,37.0,35.0,29.65,West,268,1.0,5.0,93,0.06,,,0.13,,2013-02-20 02:02:00,
2013-02-19 21:11:00,37.0,35.0,29.65,West,268,1.0,5.0,93,0.06,,,0.13,,2013-02-20 02:11:00,
2013-02-19 21:22:00,36.0,34.0,29.64,West,268,1.0,3.0,93,0.06,,,0.14,,2013-02-20 02:22:00,
2013-02-19 21:32:00,36.0,34.0,29.64,West,268,0.0,3.0,93,0.04,,,0.14,,2013-02-20 02:32:00,
2013-02-19 21:42:00,36.0,34.0,29.64,West,268,0.0,3.0,93,0.04,,,0.14,,2013-02-20 02:42:00,
2013-02-19 21:52:00,36.0,34.0,29.64,West,268,0.0,2.0,94,0.03,,,0.14,,2013-02-20 02:52:00,
2013-02-19 22:02:00,36.0,34.0,29.63,West,272,0.0,1.0,94,0.01,,,0.14,,2013-02-20 03:02:00,
2013-02-19 22:12:00,36.0,34.0,29.63,West,272,0.0,1.0,94,0.01,,,0.14,,2013-02-20 03:12:00,
2013-02-19 22:22:00,36.0,34.0,29.63,West,272,0.0,1.0,94,0.00,,,0.14,,2013-02-20 03:22:00,
2013-02-19 22:32:00,35.0,34.0,29.63,West,273,0.0,1.0,95,0.00,,,0.14,,2013-02-20 03:32:00,
2013-02-19 22:42:00,35.0,34.0,29.63,West,273,0.0,1.0,95,0.00,,,0.14,,2013-02-20 03:42:00,
2013-02-19 22:52:00,35.0,34.0,29.63,West,274,0.0,1.0,95,0.00,,,0.14,,2013-02-20 03:52:00,
2013-02-19 23:01:00,35.0,34.0,29.65,SW,220,3.0,6.0,95,0.00,,,0.14,,2013-02-20 04:01:00,
2013-02-19 23:11:00,35.0,34.0,29.65,SW,220,3.0,6.0,95,0.00,,,0.14,,2013-02-20 04:11:00,
2013-02-19 23:21:00,35.0,33.0,29.66,NW,310,4.0,11.0,92,0.01,,,0.15,,2013-02-20 04:21:00,
2013-02-19 23:32:00,34.0,31.0,29.67,NW,318,5.0,15.0,88,0.01,,,0.15,,2013-02-20 04:32:00,
2013-02-19 23:42:00,34.0,31.0,29.67,NW,318,5.0,15.0,88,0.01,,,0.15,,2013-02-20 04:42:00,
2013-02-19 23:52:00,33.0,29.0,29.67,WNW,283,7.0,15.0,84,0.01,,,0.15,,2013-02-20 04:52:00,